Location: Deuil
(48.9767°N, 2.3272°E)
Time: 18:33:03
(UTC+00:00)

SL-19 R/B - Visible Passes

Search period start: 11 August 2022 00:00
Search period end: 21 August 2022 00:00
Orbit: 506 x 697 km, 98.4° (Epoch: 10 August)

Date Brightness Start Highest point End Pass type
(mag) Time Alt. Az. Time Alt. Az. Time Alt. Az.
11 Aug 6.6 02:17:13 10° SE 02:21:35 50° ENE 02:26:08 10° N visible
11 Aug 7.0 03:54:00 10° SW 03:57:31 22° W 04:01:10 10° NW visible
12 Aug 8.8 00:57:08 10° ENE 00:58:21 11° NE 00:59:36 10° NE visible
12 Aug 6.2 02:28:35 10° SSE 02:33:03 64° ENE 02:37:44 10° N visible
13 Aug 8.6 01:07:27 10° E 01:09:42 14° NE 01:11:58 10° NNE visible
13 Aug 5.8 02:40:01 10° SSE 02:44:34 81° ENE 02:49:19 10° NNW visible
14 Aug 8.5 01:18:11 10° E 01:21:04 16° ENE 01:23:59 10° NNE visible
14 Aug 5.7 02:51:30 10° SSE 02:56:05 81° WSW 03:00:51 10° NNW visible
15 Aug 8.2 01:29:05 10° ESE 01:32:26 20° ENE 01:35:51 10° NNE visible
15 Aug 5.7 03:03:04 10° S 03:07:37 64° WSW 03:12:22 10° NNW visible
16 Aug 7.9 01:40:06 10° ESE 01:43:50 24° ENE 01:47:39 10° N visible
16 Aug 6.0 03:14:42 10° S 03:19:11 50° W 03:23:49 10° NNW visible
17 Aug 7.6 01:51:13 10° ESE 01:55:15 30° ENE 01:59:22 10° N visible
17 Aug 6.2 03:26:24 10° SSW 03:30:45 40° W 03:35:15 10° NNW visible
18 Aug 7.2 02:02:25 10° SE 02:06:41 36° ENE 02:11:03 10° N visible
18 Aug 6.5 03:38:11 10° SSW 03:42:21 32° W 03:46:37 10° NNW visible
19 Aug 6.8 02:13:41 10° SE 02:18:08 45° ENE 02:22:41 10° N visible
19 Aug 6.8 03:50:05 10° SSW 03:53:58 26° W 03:57:56 10° NW visible
20 Aug 9.0 00:54:34 10° NE 00:54:57 10° NE 00:55:19 10° NE visible
20 Aug 6.4 02:25:01 10° SSE 02:29:37 57° ENE 02:34:17 10° N visible
20 Aug 7.1 04:02:06 10° SW 04:05:36 21° W 04:09:09 10° NW visible
